TimeCDT,TemperatureF,Dew PointF,Humidity,Sea Level PressureIn,VisibilityMPH,Wind Direction,Wind SpeedMPH,Gust SpeedMPH,PrecipitationIn,Events,Conditions,WindDirDegrees,DateUTC
12:05 AM,51.8,48.2,88,30.18,10.0,NE,4.6,-,N/A,,Overcast,50,2013-04-27 05:05:00
12:14 AM,51.8,48.2,88,30.18,10.0,NE,4.6,-,N/A,,Overcast,50,2013-04-27 05:14:00
12:30 AM,51.8,48.2,88,30.18,10.0,East,4.6,-,N/A,,Overcast,80,2013-04-27 05:30:00
12:53 AM,51.1,48.0,89,30.17,9.0,NE,5.8,-,N/A,,Overcast,50,2013-04-27 05:53:00
1:53 AM,51.1,48.0,89,30.17,9.0,East,4.6,-,N/A,,Overcast,80,2013-04-27 06:53:00
2:03 AM,51.8,48.2,88,30.16,9.0,East,5.8,-,N/A,,Overcast,80,2013-04-27 07:03:00
2:53 AM,51.1,48.0,89,30.15,9.0,East,4.6,-,N/A,,Overcast,80,2013-04-27 07:53:00
3:53 AM,50.0,48.0,93,30.14,7.0,NE,3.5,-,N/A,,Overcast,50,2013-04-27 08:53:00
4:53 AM,50.0,48.0,93,30.15,2.5,NNE,4.6,-,N/A,,Overcast,30,2013-04-27 09:53:00
5:03 AM,50.0,48.2,94,30.15,1.8,NNE,4.6,-,N/A,,Overcast,30,2013-04-27 10:03:00
5:13 AM,50.0,48.2,94,30.15,2.5,NE,3.5,-,N/A,,Overcast,40,2013-04-27 10:13:00
5:28 AM,50.0,48.2,94,30.14,3.0,Calm,Calm,-,0.01,Rain,Light Rain,0,2013-04-27 10:28:00
5:53 AM,50.0,48.0,93,30.15,3.0,North,4.6,-,0.01,,Overcast,350,2013-04-27 10:53:00
5:55 AM,50.0,48.2,94,30.15,2.5,NNW,4.6,-,N/A,,Overcast,340,2013-04-27 10:55:00
6:05 AM,50.0,48.2,94,30.15,1.8,NNW,5.8,-,N/A,,Overcast,340,2013-04-27 11:05:00
6:11 AM,50.0,48.2,94,30.15,2.5,NNW,5.8,-,N/A,,Overcast,340,2013-04-27 11:11:00
6:18 AM,50.0,48.2,94,30.15,3.0,North,5.8,-,N/A,,Overcast,350,2013-04-27 11:18:00
6:32 AM,50.0,48.2,94,30.15,2.5,North,6.9,-,N/A,,Overcast,360,2013-04-27 11:32:00
6:48 AM,50.0,48.2,94,30.15,3.0,NNW,6.9,-,N/A,,Overcast,340,2013-04-27 11:48:00
6:53 AM,50.0,48.0,93,30.15,4.0,North,6.9,-,N/A,,Overcast,350,2013-04-27 11:53:00
7:08 AM,50.0,48.2,94,30.15,4.0,North,6.9,-,N/A,,Overcast,360,2013-04-27 12:08:00
7:47 AM,50.0,48.2,94,30.15,1.8,North,8.1,-,N/A,,Overcast,360,2013-04-27 12:47:00
7:48 AM,50.0,48.2,94,30.16,1.8,North,6.9,-,N/A,,Overcast,360,2013-04-27 12:48:00
7:58 AM,50.0,48.2,94,30.15,1.2,North,6.9,-,0.00,Rain,Light Rain,10,2013-04-27 12:58:00
8:53 AM,51.1,48.9,92,30.17,1.8,NNW,8.1,-,0.00,Rain,Light Rain,340,2013-04-27 13:53:00
9:01 AM,50.0,48.2,94,30.16,2.5,NNW,9.2,-,0.00,,Overcast,340,2013-04-27 14:01:00
9:11 AM,51.8,48.2,88,30.17,3.0,North,9.2,-,0.00,,Overcast,350,2013-04-27 14:11:00
9:20 AM,51.8,48.2,88,30.16,2.5,NNW,9.2,-,0.00,Rain,Light Rain,340,2013-04-27 14:20:00
9:32 AM,51.8,48.2,88,30.17,4.0,NNW,8.1,-,0.00,,Overcast,340,2013-04-27 14:32:00
9:53 AM,51.1,48.0,89,30.17,2.5,NNW,10.4,-,0.00,Rain,Light Rain,330,2013-04-27 14:53:00
10:16 AM,51.8,48.2,88,30.16,4.0,NNW,10.4,-,0.00,Rain,Light Rain,330,2013-04-27 15:16:00
10:53 AM,52.0,48.0,86,30.17,8.0,NNW,8.1,-,0.00,Rain,Light Rain,330,2013-04-27 15:53:00
11:53 AM,54.0,48.0,80,30.17,10.0,NNW,5.8,-,0.00,,Overcast,340,2013-04-27 16:53:00
12:18 PM,53.6,48.2,82,30.16,10.0,NNE,4.6,-,N/A,,Overcast,30,2013-04-27 17:18:00
12:53 PM,55.9,48.9,77,30.14,10.0,NE,3.5,-,N/A,,Overcast,40,2013-04-27 17:53:00
1:39 PM,59.0,50.0,72,30.13,10.0,NE,5.8,-,N/A,,Scattered Clouds,40,2013-04-27 18:39:00
1:53 PM,60.1,50.0,69,30.12,10.0,Variable,3.5,-,N/A,,Partly Cloudy,0,2013-04-27 18:53:00
2:53 PM,63.0,51.1,65,30.09,10.0,Calm,Calm,-,N/A,,Clear,0,2013-04-27 19:53:00
3:53 PM,64.9,51.1,61,30.06,10.0,Calm,Calm,-,N/A,,Clear,0,2013-04-27 20:53:00
4:53 PM,66.0,48.9,54,30.03,10.0,SSE,4.6,-,N/A,,Clear,160,2013-04-27 21:53:00
5:53 PM,66.9,52.0,59,30.01,10.0,SSE,3.5,-,N/A,,Clear,150,2013-04-27 22:53:00
6:53 PM,66.0,51.1,59,30.00,10.0,South,3.5,-,N/A,,Clear,180,2013-04-27 23:53:00
7:53 PM,64.0,51.1,63,29.99,10.0,ESE,4.6,-,N/A,,Clear,120,2013-04-28 00:53:00
8:53 PM,61.0,50.0,67,29.99,10.0,ESE,4.6,-,N/A,,Clear,110,2013-04-28 01:53:00
9:53 PM,55.9,48.9,77,30.00,10.0,SE,8.1,-,N/A,,Clear,140,2013-04-28 02:53:00
10:53 PM,53.1,48.9,86,30.00,10.0,SSE,8.1,-,N/A,,Clear,160,2013-04-28 03:53:00
11:53 PM,50.0,46.9,89,30.00,10.0,South,6.9,-,N/A,,Clear,180,2013-04-28 04:53:00